QPF
0.00 0.00 0.00 0.00 0.00 0.00 0.00 0.00 0.00 0.00 0.00 0.00 0.00 0.00 0.00 0.00 0.00 0.00 0.00 0.00 0.00 0.00 0.00 0.00 0.00 0.01 0.01 0.02 0.00 0.01 0.03 0.02 0.00 0.01 0.01 0.01 0.00 0.00 0.00 0.00 0.00 0.00 0.00 0.00
0.00 0.00 0.00 0.00 0.00 0.00 0.00 0.00 0.00 0.00 0.00 0.00 0.00 0.00 0.00 0.00 0.00 0.00 0.00 0.00 0.00 0.00 0.00 0.00 0.01 0.01 0.01 0.01 0.00 0.01 0.02 0.01 0.00 0.00 0.00 0.00 0.00 0.00 0.00 0.00 0.00 0.00 0.00 0.00
0.00 0.00 0.00 0.00 0.00 0.00 0.00 0.00 0.00 0.00 0.00 0.00 0.00 0.00 0.00 0.00 0.00 0.00 0.00 0.00 0.00 0.00 0.00 0.00 0.00 0.00 0.00 0.00 0.00 0.00 0.00 0.00 0.00 0.00 0.00 0.00 0.00 0.00 0.00 0.00 0.00 0.00 0.00 0.00
0.00 0.00 0.00 0.00 0.00 0.00 0.00 0.00 0.00 0.00 0.00 0.00 0.00 0.00 0.00 0.00 0.00 0.00 0.00 0.00 0.00 0.00 0.00 0.00 0.00 0.00 0.00 0.00 0.00 0.00 0.00 0.00 0.00 0.00 0.00 0.00 0.00 0.00 0.00 0.00 0.00 0.00 0.00 0.00
0.00 0.00 0.00 0.00 0.00 0.00 0.00 0.00 0.00 0.00 0.00 0.00 0.00 0.00 0.00 0.00 0.00 0.00 0.00 0.00 0.00 0.00 0.00 0.00 0.00 0.00 0.00 0.00 0.00 0.00 0.00 0.00 0.00 0.00 0.00 0.00 0.00 0.00 0.00 0.00 0.00 0.00 0.00 0.00
0.00 0.00 0.00 0.00 0.00 0.00 0.00 0.00 0.00 0.00 0.00 0.00 0.00 0.01 0.02 0.01 0.00 0.00 0.00 0.00 0.00 0.00 0.00 0.00 0.00 0.00 0.00 0.00 0.00 0.00 0.00 0.00 0.00 0.00 0.00 0.00 0.00 0.00 0.00 0.00 0.00 0.00 0.00 0.00
0.00 0.00 0.00 0.00 0.00 0.00 0.00 0.00 0.00 0.02 0.01 0.00 0.02 0.02 0.02 0.00 0.00 0.00 0.00 0.00 0.00 0.00 0.00 0.00 0.00 0.00 0.00 0.00 0.00 0.00 0.00 0.00 0.00 0.00 0.00 0.00 0.00 0.00 0.00 0.00 0.00 0.00 0.00 0.00
0.00 0.00 0.00 0.00 0.00 0.00 0.00 0.00 0.00 0.00 0.00 0.01 0.00 0.00 0.00 0.00 0.00 0.00 0.00 0.00 0.00 0.00 0.00 0.00 0.00 0.00 0.00 0.00 0.00 0.00 0.00 0.00 0.00 0.00 0.00 0.00 0.00 0.00 0.00 0.00 0.00 0.00 0.00 0.00
0.00 0.00 0.00 0.00 0.00 0.00 0.00 0.00 0.00 0.00 0.00 0.00 0.00 0.00 0.00 0.00 0.00 0.00 0.00 0.00 0.00 0.00 0.00 0.00 0.00 0.00 0.00 0.00 0.00 0.00 0.00 0.00 0.00 0.00 0.00 0.00 0.00 0.00 0.00 0.00 0.00 0.00 0.00 0.00
0.00 0.00 0.00 0.00 0.00 0.00 0.00 0.00 0.00 0.00 0.00 0.00 0.00 0.00 0.00 0.00 0.00 0.00 0.00 0.00 0.00 0.00 0.00 0.00 0.00 0.00 0.00 0.00 0.00 0.00 0.00 0.00 0.00 0.00 0.00 0.00 0.00 0.00 0.00 0.00 0.00 0.00 0.00 0.00
0.00 0.00 0.00 0.00 0.00 0.00 0.00 0.00 0.00 0.00 0.00 0.00 0.00 0.00 0.00 0.00 0.00 0.00 0.00 0.00 0.00 0.00 0.00 0.00 0.00 0.00 0.00 0.00 0.00 0.00 0.00 0.00 0.00 0.00 0.00 0.00 0.00 0.00 0.00 0.00 0.00 0.00 0.00 0.00
0.00 0.00 0.00 0.00 0.00 0.00 0.00 0.00 0.00 0.00 0.00 0.00 0.00 0.00 0.00 0.00 0.00 0.00 0.00 0.00 0.00 0.00 0.00 0.00 0.00 0.00 0.00 0.00 0.00 0.00 0.00 0.00 0.00 0.00 0.00 0.00 0.00 0.00 0.00 0.00 0.00 0.00 0.00 0.00
0.00 0.00 0.00 0.00 0.00 0.00 0.00 0.00 0.00 0.00 0.00 0.00 0.00 0.00 0.00 0.00 0.00 0.00 0.00 0.00 0.00 0.00 0.00 0.00 0.00 0.00 0.00 0.00 0.00 0.00 0.00 0.00 0.00 0.00 0.00 0.00 0.00 0.00 0.00 0.00 0.00 0.00 0.00 0.00
0.00 0.00 0.00 0.00 0.00 0.00 0.00 0.00 0.00 0.00 0.00 0.00 0.00 0.00 0.00 0.00 0.00 0.00 0.00 0.00 0.00 0.00 0.00 0.00 0.00 0.00 0.00 0.00 0.00 0.00 0.00 0.00 0.00 0.00 0.00 0.01 0.01 0.01 0.00 0.00 0.00 0.00 0.00 0.00
0.00 0.00 0.00 0.00 0.00 0.00 0.00 0.00 0.00 0.00 0.00 0.00 0.00 0.00 0.00 0.00 0.00 0.00 0.00 0.00 0.00 0.00 0.00 0.00 0.00 0.00 0.00 0.00 0.00 0.00 0.00 0.00 0.00 0.00 0.00 0.00 0.01 0.01 0.01 0.02 0.01 0.00 0.00 0.00
0.00 0.00 0.00 0.00 0.00 0.00 0.00 0.00 0.00 0.00 0.00 0.00 0.00 0.00 0.00 0.00 0.00 0.00 0.00 0.00 0.00 0.00 0.00 0.00 0.00 0.00 0.00 0.00 0.00 0.00 0.00 0.00 0.00 0.00 0.00 0.01 0.01 0.03 0.03 0.01 0.01 0.00 0.00 0.00
0.00 0.00 0.00 0.00 0.00 0.00 0.00 0.00 0.00 0.00 0.00 0.00 0.00 0.00 0.00 0.00 0.00 0.00 0.00 0.00 0.00 0.00 0.00 0.00 0.00 0.00 0.00 0.00 0.00 0.00 0.00 0.00 0.00 0.00 0.00 0.01 0.01 0.02 0.02 0.03 0.01 0.00 0.00 0.00
0.00 0.00 0.00 0.00 0.00 0.00 0.00 0.00 0.00 0.00 0.00 0.00 0.00 0.00 0.00 0.00 0.00 0.00 0.00 0.00 0.00 0.00 0.00 0.00 0.00 0.00 0.00 0.00 0.00 0.00 0.00 0.00 0.00 0.00 0.00 0.00 0.01 0.01 0.04 0.03 0.00 0.00 0.00 0.00
0.00 0.00 0.00 0.00 0.00 0.00 0.00 0.00 0.00 0.00 0.00 0.00 0.00 0.00 0.00 0.00 0.00 0.00 0.00 0.00 0.00 0.00 0.00 0.00 0.00 0.00 0.00 0.00 0.00 0.00 0.00 0.00 0.00 0.00 0.00 0.00 0.01 0.01 0.01 0.00 0.00 0.00 0.00 0.00
0.00 0.00 0.00 0.00 0.00 0.00 0.00 0.00 0.00 0.00 0.00 0.00 0.00 0.00 0.00 0.00 0.00 0.00 0.00 0.00 0.00 0.00 0.00 0.00 0.00 0.00 0.00 0.00 0.00 0.00 0.00 0.00 0.00 0.00 0.00 0.00 0.00 0.00 0.01 0.01 0.00 0.00 0.00 0.00
0.00 0.00 0.00 0.00 0.00 0.00 0.00 0.00 0.00 0.00 0.00 0.00 0.00 0.00 0.00 0.00 0.00 0.00 0.00 0.00 0.00 0.00 0.00 0.00 0.00 0.00 0.00 0.00 0.00 0.00 0.00 0.00 0.00 0.00 0.00 0.00 0.00 0.00 0.00 0.00 0.00 0.00 0.00 0.00
0.00 0.00 0.00 0.00 0.00 0.00 0.00 0.00 0.00 0.00 0.00 0.00 0.00 0.00 0.00 0.00 0.00 0.00 0.00 0.00 0.00 0.00 0.00 0.00 0.00 0.00 0.00 0.00 0.00 0.00 0.00 0.00 0.00 0.00 0.00 0.00 0.00 0.00 0.00 0.00 0.00 0.00 0.00 0.00
0.00 0.00 0.00 0.00 0.00 0.00 0.00 0.00 0.00 0.00 0.00 0.00 0.00 0.00 0.00 0.00 0.00 0.00 0.00 0.00 0.00 0.00 0.00 0.00 0.00 0.00 0.00 0.00 0.00 0.00 0.00 0.00 0.00 0.00 0.00 0.00 0.00 0.00 0.00 0.00 0.00 0.00 0.00 0.00
0.00 0.00 0.00 0.00 0.00 0.00 0.00 0.00 0.00 0.00 0.00 0.00 0.00 0.00 0.00 0.00 0.00 0.00 0.00 0.00 0.00 0.00 0.00 0.00 0.00 0.00 0.00 0.00 0.00 0.00 0.00 0.00 0.00 0.00 0.00 0.00 0.00 0.00 0.00 0.00 0.00 0.00 0.00 0.00
0.00 0.00 0.00 0.00 0.00 0.00 0.00 0.00 0.00 0.00 0.00 0.00 0.00 0.00 0.00 0.00 0.00 0.00 0.00 0.00 0.00 0.00 0.00 0.00 0.00 0.00 0.00 0.00 0.00 0.00 0.00 0.00 0.00 0.00 0.00 0.00 0.00 0.00 0.00 0.00 0.00 0.00 0.00 0.00
0.00 0.00 0.00 0.00 0.00 0.00 0.00 0.00 0.00 0.00 0.00 0.00 0.00 0.00 0.00 0.00 0.00 0.00 0.00 0.00 0.00 0.00 0.00 0.00 0.00 0.00 0.00 0.00 0.00 0.00 0.00 0.00 0.00 0.00 0.00 0.00 0.00 0.00 0.00 0.00 0.00 0.00 0.00 0.00
MSLP
1008.66 1009.71 1010.18 1010.22 1010.12 1010.10 1010.04 1010.17 1010.36 1010.54 1010.43 1010.74 1011.03 1011.93 1012.11 1011.92 1012.34 1013.10 1014.22 1014.72 1015.39 1015.55 1016.29 1016.46 1016.65 1016.65 1016.89 1017.37 1017.89 1018.75 1019.06 1019.34 1019.44 1019.59 1019.77 1020.31 1020.57 1020.54 1020.81 1020.56 1020.42 1020.12 1020.03 1019.95
1009.61 1010.39 1010.36 1010.23 1010.25 1010.33 1010.29 1010.59 1011.23 1010.97 1010.71 1011.01 1011.52 1012.38 1012.48 1012.72 1013.78 1014.14 1015.03 1015.72 1016.10 1016.50 1016.94 1017.37 1017.71 1018.09 1018.41 1018.93 1019.17 1019.62 1019.74 1019.57 1020.02 1020.20 1020.33 1020.34 1020.53 1020.58 1020.33 1020.26 1020.36 1020.72 1020.74 1020.30
1010.28 1010.81 1010.46 1010.36 1010.66 1011.03 1011.15 1011.55 1011.68 1011.81 1011.52 1011.44 1012.01 1013.38 1013.34 1013.80 1014.27 1014.83 1015.62 1016.32 1016.78 1017.35 1017.96 1018.49 1019.03 1019.52 1019.54 1019.59 1019.78 1019.89 1019.96 1020.16 1020.33 1020.43 1020.42 1020.62 1020.88 1021.11 1021.25 1021.38 1021.27 1021.13 1020.85 1020.50
1010.88 1010.89 1010.76 1010.75 1011.25 1011.62 1011.83 1012.09 1012.22 1012.49 1012.87 1012.89 1012.65 1014.52 1014.41 1014.52 1015.22 1015.81 1016.49 1017.20 1017.95 1018.52 1019.03 1019.40 1019.82 1020.26 1020.45 1020.64 1020.37 1020.31 1020.37 1020.47 1020.74 1020.95 1021.06 1021.65 1022.19 1022.31 1022.17 1021.89 1021.72 1021.73 1021.45 1021.15
1011.46 1011.48 1011.42 1011.44 1011.89 1012.02 1012.52 1012.49 1012.82 1013.20 1013.69 1013.93 1013.58 1014.44 1015.57 1015.30 1016.41 1016.71 1017.19 1017.81 1018.55 1019.10 1019.70 1020.28 1020.47 1020.86 1020.96 1020.96 1020.92 1020.73 1020.72 1020.78 1020.94 1021.11 1021.40 1021.85 1022.23 1022.11 1021.95 1022.11 1022.35 1022.28 1021.95 1021.65
1011.69 1011.76 1012.09 1012.17 1012.05 1012.07 1012.38 1012.93 1013.43 1014.07 1014.82 1015.47 1014.86 1015.01 1016.32 1016.47 1016.57 1017.24 1017.67 1018.35 1018.96 1019.29 1019.80 1020.13 1020.58 1020.86 1021.05 1020.97 1020.86 1020.73 1020.74 1020.83 1020.88 1020.92 1021.21 1021.58 1021.92 1022.13 1022.53 1022.56 1022.52 1022.39 1022.26 1022.03
1012.39 1012.62 1012.55 1012.40 1012.34 1012.51 1012.94 1013.56 1014.86 1016.22 1016.87 1016.98 1015.71 1015.93 1017.21 1016.85 1016.87 1017.20 1018.09 1018.76 1019.21 1019.62 1020.00 1020.35 1020.63 1020.91 1021.12 1021.09 1021.00 1020.96 1020.85 1020.73 1020.64 1020.81 1021.18 1021.54 1021.96 1022.33 1022.77 1022.99 1023.03 1022.71 1022.30 1022.11
1012.95 1013.57 1013.22 1013.22 1013.10 1013.36 1013.53 1014.32 1016.12 1017.78 1018.91 1018.44 1016.72 1017.47 1018.18 1017.22 1017.38 1017.75 1018.17 1018.53 1019.01 1019.44 1019.97 1020.33 1020.42 1020.86 1020.90 1020.79 1020.78 1020.85 1020.73 1020.64 1020.59 1021.02 1021.61 1022.05 1022.36 1022.55 1022.76 1022.59 1022.73 1022.55 1022.22 1022.18
1013.75 1014.30 1014.09 1013.74 1013.48 1013.65 1014.04 1015.13 1016.10 1018.12 1019.52 1019.92 1019.12 1018.97 1018.08 1017.62 1017.79 1017.95 1018.26 1018.58 1019.23 1019.56 1019.90 1020.32 1020.43 1021.14 1021.51 1021.59 1021.38 1021.27 1021.14 1021.33 1021.33 1021.73 1022.01 1022.29 1022.41 1022.67 1022.76 1022.75 1022.35 1022.46 1022.51 1022.14
1014.48 1014.89 1014.68 1014.27 1014.06 1013.97 1014.34 1015.23 1016.63 1018.57 1020.76 1021.42 1020.33 1019.45 1018.71 1018.48 1018.49 1018.54 1019.01 1019.48 1019.66 1020.05 1020.32 1020.83 1021.26 1021.84 1021.94 1021.98 1021.99 1021.99 1021.99 1022.31 1022.51 1022.53 1022.43 1022.56 1022.52 1022.33 1022.67 1022.89 1022.72 1022.60 1022.68 1022.67
1015.27 1015.51 1015.71 1015.05 1015.14 1015.06 1015.10 1015.75 1017.22 1019.00 1021.08 1022.22 1021.84 1020.57 1018.54 1019.01 1019.00 1019.20 1019.44 1020.15 1020.72 1021.14 1021.39 1021.86 1022.08 1022.11 1022.30 1022.37 1022.43 1022.64 1022.54 1022.43 1022.51 1022.33 1022.16 1022.07 1022.02 1021.95 1022.25 1022.23 1022.08 1022.14 1022.33 1022.38
1016.34 1016.84 1016.98 1016.53 1015.91 1015.52 1015.63 1016.47 1017.90 1020.41 1022.31 1022.81 1022.47 1021.15 1019.44 1019.11 1019.19 1019.60 1020.28 1020.59 1020.84 1021.28 1021.86 1022.13 1022.32 1022.50 1022.55 1022.80 1022.47 1022.73 1022.60 1022.52 1022.30 1022.08 1022.10 1022.16 1021.93 1021.90 1021.59 1021.62 1021.64 1021.60 1021.84 1022.13
1017.31 1017.81 1018.33 1017.88 1017.26 1016.49 1016.40 1017.03 1018.34 1020.16 1021.76 1022.91 1023.04 1021.41 1019.39 1019.09 1018.97 1019.54 1020.73 1021.12 1021.53 1021.89 1022.45 1022.86 1022.95 1022.80 1022.96 1022.71 1022.83 1022.91 1022.76 1022.59 1022.26 1022.01 1021.97 1021.92 1021.93 1021.92 1022.20 1021.85 1021.94 1021.90 1021.81 1022.25
1017.84 1018.54 1019.39 1019.35 1018.58 1017.85 1017.54 1017.62 1018.20 1019.45 1021.30 1021.87 1021.76 1020.84 1019.74 1019.92 1020.65 1021.18 1021.64 1021.81 1022.19 1022.64 1023.13 1023.36 1023.42 1023.47 1023.27 1023.16 1023.22 1023.22 1023.11 1022.75 1022.43 1022.17 1021.88 1021.65 1021.45 1021.62 1021.69 1021.71 1022.08 1022.31 1022.08 1022.12
1018.97 1020.55 1020.85 1020.34 1019.65 1018.97 1018.43 1018.31 1018.49 1018.95 1019.59 1020.53 1020.30 1020.31 1020.96 1021.10 1021.37 1021.79 1022.16 1022.54 1022.96 1023.34 1023.51 1023.76 1023.79 1023.36 1023.43 1023.56 1023.51 1023.40 1023.26 1023.02 1022.68 1022.37 1022.23 1021.55 1020.96 1021.49 1021.84 1022.05 1021.78 1022.04 1021.51 1021.48
1020.45 1022.27 1022.65 1022.23 1021.15 1020.44 1019.72 1019.05 1018.70 1018.63 1018.77 1019.12 1019.61 1020.42 1020.67 1021.12 1021.48 1022.22 1022.78 1023.19 1023.66 1023.93 1023.69 1023.75 1023.59 1023.53 1023.60 1023.64 1023.46 1023.49 1023.56 1023.41 1022.99 1022.70 1022.21 1021.43 1021.56 1021.68 1021.81 1021.91 1021.58 1021.16 1020.71 1021.16
1022.32 1023.79 1024.50 1024.30 1023.09 1021.91 1020.81 1019.15 1018.58 1018.23 1018.40 1018.83 1019.81 1020.75 1021.53 1021.91 1022.38 1023.13 1023.51 1023.68 1023.91 1023.92 1023.82 1023.88 1023.69 1023.62 1023.66 1023.61 1023.74 1023.80 1023.67 1023.30 1023.00 1022.70 1022.31 1022.32 1022.21 1021.98 1021.94 1021.95 1022.00 1021.38 1020.96 1020.85
1023.26 1024.49 1025.50 1025.95 1024.65 1023.35 1020.21 1018.81 1018.19 1018.46 1019.03 1019.61 1020.54 1021.55 1021.88 1022.41 1023.06 1023.39 1023.61 1023.74 1023.78 1023.73 1023.74 1023.62 1023.71 1023.70 1023.68 1023.77 1023.81 1023.78 1023.42 1023.17 1022.96 1022.89 1022.73 1022.41 1022.11 1021.87 1021.73 1021.44 1021.52 1021.06 1020.83 1020.62
1023.09 1024.76 1026.73 1026.98 1026.03 1023.46 1020.39 1018.98 1018.74 1019.07 1020.37 1020.64 1021.32 1022.00 1022.45 1022.82 1023.16 1023.72 1023.61 1023.51 1023.52 1023.50 1023.45 1023.46 1023.45 1023.46 1023.62 1023.61 1023.58 1023.48 1023.34 1023.27 1023.04 1022.91 1022.72 1022.45 1022.22 1021.69 1021.46 1021.65 1021.11 1020.75 1020.68 1020.80
1024.00 1024.99 1026.21 1027.09 1026.63 1024.24 1020.92 1019.51 1019.01 1019.46 1021.07 1021.66 1021.96 1022.60 1023.01 1023.20 1023.65 1023.82 1023.37 1023.26 1023.24 1023.11 1023.11 1023.19 1023.15 1023.21 1023.33 1023.40 1023.25 1023.22 1023.20 1023.05 1022.96 1022.86 1022.69 1022.40 1022.11 1021.77 1021.53 1021.38 1020.80 1020.65 1020.56 1020.69
1025.06 1025.79 1026.41 1026.66 1025.78 1023.25 1020.37 1019.45 1019.19 1020.60 1021.56 1021.84 1022.27 1022.62 1023.01 1023.43 1023.64 1023.52 1023.25 1023.14 1022.93 1022.82 1022.84 1022.72 1022.85 1023.17 1023.18 1022.94 1022.79 1022.85 1022.84 1022.83 1022.69 1022.48 1022.29 1022.04 1021.68 1021.37 1020.98 1020.80 1020.74 1020.49 1020.67 1021.01
1023.93 1024.92 1025.43 1025.41 1024.66 1022.07 1019.55 1019.45 1020.00 1020.56 1021.01 1021.62 1022.05 1022.38 1022.59 1023.01 1023.08 1023.07 1023.03 1022.88 1022.80 1022.78 1022.69 1022.68 1022.92 1023.02 1022.73 1022.54 1022.62 1022.71 1022.72 1022.54 1022.44 1022.22 1022.01 1021.79 1021.39 1021.02 1020.72 1020.71 1020.44 1020.53 1020.91 1021.32
1022.21 1021.59 1022.11 1022.59 1021.42 1019.58 1018.86 1019.03 1019.68 1020.09 1020.86 1021.53 1021.91 1021.97 1022.21 1022.52 1022.65 1022.84 1022.84 1022.83 1022.95 1022.96 1022.99 1022.97 1023.00 1022.73 1022.59 1022.54 1022.41 1022.46 1022.47 1022.39 1022.30 1022.14 1022.03 1021.75 1021.33 1021.04 1020.76 1020.71 1020.78 1020.96 1021.21 1021.49
1019.87 1019.46 1020.16 1020.27 1019.28 1018.76 1018.78 1018.96 1019.31 1019.95 1020.59 1021.07 1021.43 1021.57 1021.79 1022.23 1022.47 1022.65 1023.00 1023.14 1023.27 1023.34 1023.34 1023.12 1022.96 1022.91 1022.77 1022.37 1022.13 1022.14 1022.08 1022.01 1021.96 1022.09 1022.05 1021.78 1021.65 1021.29 1020.86 1020.74 1020.89 1021.27 1021.42 1021.61
1019.39 1018.75 1018.93 1019.14 1018.67 1018.79 1019.12 1019.13 1019.61 1020.09 1020.51 1020.80 1020.83 1021.19 1021.63 1022.11 1022.60 1023.08 1023.45 1023.53 1023.68 1023.72 1023.49 1023.30 1023.21 1023.02 1022.67 1022.27 1022.08 1021.89 1021.67 1021.55 1021.67 1021.98 1022.03 1021.97 1021.88 1021.55 1021.16 1021.02 1021.26 1021.40 1021.43 1021.53
1018.46 1018.10 1018.66 1018.17 1018.17 1018.48 1019.09 1019.35 1019.61 1019.87 1020.11 1020.39 1020.85 1021.29 1021.74 1022.34 1023.01 1023.36 1023.70 1023.88 1023.88 1023.74 1023.64 1023.47 1023.32 1023.07 1022.66 1022.34 1022.08 1021.78 1021.43 1021.21 1021.51 1021.80 1021.97 1022.01 1021.92 1021.73 1021.54 1021.52 1021.57 1021.45 1021.25 1021.15
Thickness
5700 5673 5662 5684 5696 5699 5700 5695 5686 5694 5710 5705 5699 5684 5690 5697 5693 5690 5684 5682 5677 5676 5675 5673 5672 5672 5667 5661 5654 5643 5638 5630 5622 5618 5615 5608 5600 5596 5590 5586 5582 5579 5575 5571
5683 5665 5689 5697 5701 5697 5701 5690 5677 5694 5709 5702 5695 5682 5688 5692 5683 5680 5677 5672 5670 5668 5666 5664 5661 5656 5650 5644 5637 5629 5626 5623 5616 5611 5605 5602 5595 5589 5585 5579 5573 5565 5560 5558
5669 5680 5697 5696 5685 5681 5683 5677 5679 5681 5694 5699 5693 5666 5672 5678 5678 5677 5672 5669 5667 5662 5657 5655 5649 5641 5637 5634 5629 5624 5619 5612 5607 5602 5596 5589 5583 5577 5570 5563 5557 5552 5548 5544
5677 5692 5689 5688 5680 5679 5671 5686 5685 5682 5672 5653 5684 5632 5657 5663 5659 5659 5658 5653 5650 5647 5645 5643 5636 5626 5622 5618 5618 5614 5608 5602 5595 5588 5582 5573 5563 5556 5553 5549 5543 5536 5530 5525
5671 5673 5674 5674 5675 5682 5672 5688 5681 5680 5668 5667 5669 5643 5647 5655 5632 5643 5647 5643 5636 5632 5628 5625 5623 5619 5613 5609 5605 5600 5597 5593 5586 5579 5571 5563 5555 5550 5543 5535 5526 5518 5512 5506
5675 5686 5677 5673 5683 5685 5685 5677 5674 5673 5660 5623 5659 5649 5627 5629 5638 5633 5637 5635 5631 5626 5620 5615 5610 5607 5602 5599 5595 5591 5586 5581 5578 5574 5567 5558 5549 5540 5529 5520 5513 5505 5497 5490
5665 5665 5675 5681 5668 5678 5671 5657 5614 5614 5600 5606 5661 5646 5619 5636 5641 5633 5625 5620 5620 5615 5609 5602 5597 5594 5594 5591 5587 5583 5578 5573 5566 5559 5550 5542 5530 5520 5510 5500 5491 5484 5477 5468
5643 5624 5658 5668 5663 5657 5658 5655 5607 5609 5581 5612 5649 5617 5612 5636 5633 5627 5624 5618 5616 5615 5610 5601 5593 5584 5583 5584 5581 5573 5571 5568 5562 5550 5538 5528 5518 5507 5497 5488 5477 5466 5455 5442
5640 5637 5661 5664 5669 5665 5656 5628 5655 5615 5609 5596 5614 5619 5627 5632 5626 5626 5619 5618 5604 5602 5602 5594 5592 5586 5574 5569 5565 5561 5557 5550 5543 5532 5520 5508 5496 5484 5473 5464 5455 5442 5431 5421
5653 5631 5654 5661 5667 5668 5656 5660 5617 5604 5591 5584 5603 5610 5599 5610 5611 5613 5604 5598 5599 5592 5589 5582 5575 5564 5558 5554 5551 5546 5540 5530 5520 5510 5501 5490 5479 5468 5454 5441 5431 5420 5408 5396
5648 5641 5640 5657 5642 5637 5639 5636 5634 5624 5591 5568 5561 5585 5616 5605 5604 5597 5596 5589 5584 5579 5573 5567 5560 5558 5552 5547 5540 5530 5523 5516 5506 5497 5487 5476 5465 5453 5437 5427 5416 5404 5388 5375
5647 5628 5601 5634 5651 5657 5651 5638 5628 5576 5587 5565 5552 5571 5607 5603 5598 5593 5587 5585 5583 5576 5566 5560 5555 5548 5543 5534 5530 5520 5513 5504 5496 5487 5475 5461 5449 5436 5424 5412 5399 5388 5370 5356
5638 5620 5592 5614 5631 5643 5639 5638 5624 5603 5575 5570 5541 5560 5606 5601 5602 5596 5579 5577 5571 5564 5557 5548 5542 5539 5533 5528 5519 5508 5498 5490 5479 5468 5456 5443 5428 5414 5398 5389 5374 5362 5347 5332
5638 5632 5608 5587 5616 5624 5623 5627 5624 5604 5563 5573 5562 5583 5595 5584 5579 5571 5567 5562 5556 5550 5542 5535 5528 5522 5516 5509 5499 5489 5479 5468 5457 5446 5436 5427 5415 5398 5384 5368 5350 5336 5327 5316
5630 5606 5609 5616 5620 5623 5623 5619 5616 5610 5596 5572 5583 5585 5573 5570 5566 5560 5558 5552 5545 5536 5530 5522 5516 5510 5502 5492 5480 5471 5461 5449 5438 5425 5413 5410 5401 5380 5361 5346 5335 5323 5316 5307
5616 5590 5592 5602 5611 5607 5602 5603 5603 5604 5604 5600 5596 5575 5576 5572 5566 5557 5549 5542 5531 5524 5519 5512 5506 5497 5488 5477 5468 5457 5442 5430 5418 5405 5393 5386 5374 5359 5343 5330 5322 5315 5309 5298
5588 5566 5570 5577 5584 5576 5571 5598 5602 5608 5604 5598 5574 5571 5563 5557 5550 5537 5530 5527 5520 5513 5507 5499 5492 5483 5473 5462 5450 5434 5422 5412 5401 5391 5378 5361 5351 5339 5325 5313 5304 5300 5295 5291
5570 5572 5551 5546 5553 5557 5598 5612 5608 5597 5589 5584 5572 5559 5553 5545 5535 5526 5522 5514 5509 5504 5495 5487 5476 5466 5455 5443 5430 5420 5409 5398 5385 5372 5355 5341 5332 5323 5311 5302 5293 5290 5286 5284
5590 5554 5532 5540 5536 5570 5591 5602 5592 5581 5568 5568 5556 5547 5542 5537 5530 5516 5512 5508 5501 5491 5481 5472 5463 5454 5442 5431 5420 5406 5392 5378 5365 5351 5339 5326 5311 5306 5298 5286 5284 5282 5279 5274
5574 5550 5544 5519 5518 5520 5570 5589 5590 5583 5544 5554 5548 5538 5532 5526 5488 5501 5506 5501 5493 5484 5475 5464 5453 5441 5427 5414 5403 5389 5375 5362 5349 5335 5321 5310 5300 5292 5285 5279 5279 5275 5273 5270
5529 5528 5519 5528 5505 5541 5574 5584 5582 5540 5540 5542 5535 5528 5521 5507 5491 5496 5492 5488 5481 5472 5462 5451 5438 5423 5411 5401 5390 5376 5362 5347 5334 5322 5309 5299 5292 5287 5282 5279 5274 5273 5268 5261
5543 5525 5537 5528 5522 5525 5578 5575 5551 5548 5545 5532 5527 5519 5513 5503 5495 5490 5485 5476 5467 5458 5448 5438 5423 5409 5398 5387 5375 5361 5347 5333 5319 5308 5300 5292 5287 5283 5281 5276 5273 5268 5261 5254
5561 5559 5545 5545 5543 5568 5571 5564 5554 5543 5530 5523 5515 5512 5504 5493 5489 5479 5470 5463 5452 5441 5429 5418 5406 5398 5386 5372 5359 5346 5333 5318 5305 5297 5288 5282 5280 5277 5275 5270 5265 5259 5253 5244
5579 5582 5551 5554 5570 5571 5559 5554 5546 5535 5524 5514 5507 5503 5493 5483 5477 5468 5455 5443 5432 5420 5409 5401 5392 5382 5369 5359 5348 5334 5320 5308 5296 5286 5278 5274 5270 5269 5268 5263 5257 5250 5241 5235
5564 5572 5565 5552 5561 5551 5545 5539 5529 5522 5515 5508 5503 5493 5483 5472 5459 5447 5434 5424 5413 5403 5395 5386 5374 5364 5356 5348 5335 5320 5309 5300 5288 5277 5271 5266 5262 5262 5260 5255 5248 5243 5239 5233
5568 5557 5535 5535 5552 5545 5532 5523 5520 5514 5506 5499 5489 5478 5468 5454 5441 5429 5416 5405 5396 5389 5379 5371 5361 5350 5343 5333 5320 5307 5298 5290 5279 5270 5262 5258 5256 5254 5252 5246 5239 5237 5234 5230